Flag for U.S.A. Weather past 2 weeks in Baltimore, Maryland, U.S.A.

Now
67 °F

Passing clouds.


Feels Like: 67 °F
Forecast: 67 / 82 °F
Wind: No wind

Location: Baltimore-Washington International Airport

Current Time: Jul 2, 2015 at 1:35:35 AM

Latest Report: Jul 2, 2015 at 12:54 AM


Visibility: 9 mi

Pressure: 29.90 "Hg

Humidity: 90%

Dew point: 64 °F

Location of BaltimoreLocation

Historic Weather in Baltimore — Graph

°F

Baltimore temperature yesterday

Maximum temperature yesterday: 85 °F (at 3:54 PM)
Minimum temperature yesterday: 66 °F (at 3:54 AM)
Average temperature yesterday: 75 °F

Past Weeks' High & Low Weather Summary

 TemperatureHumidityPressure
High94 °F (Jun 23, 2:54 PM)100% (Jun 28, 1:54 AM)30.11 "Hg (Jun 28, 1:54 AM)
Low59 °F (Jun 29, 4:54 AM)37% (Jun 29, 5:54 PM)29.65 "Hg (Jun 28, 1:54 AM)
Average75 °F73%29.92 "Hg
* Reported Jun 16 11:54 PM — Jul 1 11:54 PM, Baltimore, Weather by CustomWeather, © 2015

Note: Actual official high and low records may vary slightly from our data, if they occured in-between our weather recording intervals... More about our weather records

Advertising

Baltimore weather history for previous 24 hours

 ConditionsComfort  
Time TempWeatherWind HumidityBarometerVisibility
11:54 PM
Wed, Jul 1
70 °FPassing clouds.No wind84%29.90 "Hg10 mi
10:54 PM71 °FPassing clouds.No wind78%29.89 "Hg9 mi
9:54 PM73 °FPassing clouds.No wind71%29.88 "Hg9 mi
8:54 PM78 °FBroken clouds.3 mph60%29.86 "Hg8 mi
7:54 PM80 °FBroken clouds.3 mph67%29.83 "Hg9 mi
6:54 PM82 °FBroken clouds.5 mph55%29.82 "Hg10 mi
5:54 PM82 °FBroken clouds.8 mph56%29.81 "Hg9 mi
4:54 PM83 °FPartly sunny.10 mph51%29.82 "Hg10 mi
3:54 PM85 °FBroken clouds.10 mph48%29.82 "Hg10 mi
2:54 PM84 °FScattered clouds.12 mph49%29.83 "Hg10 mi
1:54 PM83 °FScattered clouds.10 mph53%29.84 "Hg10 mi
12:54 PM83 °FPassing clouds.10 mph59%29.85 "Hg10 mi
11:54 AM80 °FPassing clouds.9 mph58%29.85 "Hg10 mi
10:54 AM78 °FSunny.9 mph62%29.84 "Hg10 mi
9:54 AM75 °FSunny.8 mph74%29.83 "Hg10 mi
8:54 AM71 °FScattered clouds.5 mph87%29.84 "Hg9 mi
7:54 AM69 °FFog.6 mph93%29.84 "Hg5 mi
6:54 AM67 °FFog.8 mph97%29.84 "Hg4 mi
5:54 AM66 °FFog.3 mph96%29.82 "Hg4 mi
4:54 AM66 °FPassing clouds.5 mph96%29.81 "Hg10 mi
3:54 AM66 °FPartly cloudy.No wind96%29.81 "Hg10 mi
2:54 AM67 °FRain. Fog.5 mph93%29.83 "Hg4 mi
1:54 AM68 °FThunderstorms. Fog.9 mph93%29.84 "Hg3 mi
1:02 AM75 °FThunderstorms. Mostly cloudy.6 mph78%29.77 "Hg10 mi
Weather by CustomWeather, © 2015

See weather overviewHow to use our weather pages